Regional Weather Roundup
Issued by NWS

Home | Current Version | Previous Version | Text Only | Print | Product List | Glossary Off
Versions: 1 2 3 4 5 6 7 8 9 10 11 12 13 14 15 16 17 18 19 20 21 22 23 24 25 26 27 28 29 30 31 32 33 34 35 36 37 38 39 40 41 42 43 44 45 46 47 48 49 50

000
ASUS43 KLOT 080108
RWRIL

ILLINOIS REGIONAL WEATHER ROUNDUP
NATIONAL WEATHER SERVICE CHICAGO/ROMEOVILLE IL
700 PM CST SUN FEB 07 2016

NOTE: "FAIR" INDICATES FEW OR NO CLOUDS BELOW 12,000 FEET WITH NO
SIGNIFICANT WEATHER AND/OR OBSTRUCTIONS TO VISIBILITY.

* THESE STATIONS ARE NOT UNDER NWS QUALITY CONTROL. THEY ALSO MAY NOT
  REPORT WEATHER SUCH AS PRECIPITATION OR FOG.

ILZ001-002-007-009-015-016-024-080200-
NORTHWEST ILLINOIS

CITY           SKY/WX    TMP DP  RH WIND       PRES   REMARKS
MOLINE         CLEAR     35  27  72 W8        29.80F WCI  29
STERLING*      CLEAR     34  27  75 W8        29.77S WCI  27
SAVANNA*       CLEAR     36  29  74 W8        29.78S WCI  30
$$

ILZ003-004-008-010-011-017-018-080200-
NORTH CENTRAL ILLINOIS

CITY           SKY/WX    TMP DP  RH WIND       PRES   REMARKS
ROCKFORD       CLEAR     37  27  67 SW9       29.77F WCI  30
FREEPORT*      CLEAR     34  28  79 SW7       29.77F WCI  28
ROCHELLE*      CLEAR     33  29  86 W10       29.77F WCI  25
DE KALB*       CLEAR     35  29  79 W9        29.77S WCI  28
$$

ILZ005-006-012>014-019>023-080200-
NORTHEAST ILLINOIS

CITY           SKY/WX    TMP DP  RH WIND       PRES   REMARKS
CHICAGO-OHARE  MOCLDY    38  28  67 W12       29.74F WCI  30
CHICAGO-MIDWAY MOCLDY    41  27  57 W14       29.76S
AURORA         PTCLDY    36  29  75 W12       29.77S WCI  28
LANSING*       CLEAR     38  32  77 SW8       29.77S WCI  32
JOLIET*        PTCLDY    39  30  69 W8        29.79S WCI  34
WAUKEGAN       CLEAR     37  29  72 SW7       29.71S WCI  32
DUPAGE AIRPORT PTCLDY    37  27  67 W12       29.76S WCI  29
KANKAKEE*      PTCLDY    34  31  89 SW6       29.81S WCI  28
WHEELING       CLEAR     39  28  64 W8        29.75S WCI  33
MORRIS*          N/A     35  30  83 W9        29.76S WCI  28
ROMEOVILLE*    PTCLDY    37  28  72 W8        29.78R WCI  30
NORTHERLY ISL    N/A     41  28  60 W12         N/A
$$

LMZ740>746-080200-
SOUTHERN LAKE MICHIGAN

STATION/POSITION SKY/WX   TEMP    WIND        PRES    VSBY  WAVE
                          AIR SEA DIR/SP/G                  HT/PER
                          (F)     (DEG/KT/KT) (MB)    (MI)  (FT/S)
HARRISON CRIB              44     250/ 23/ 27   N/A
BURNHAM HARBOR             42     230/  7/ 13   N/A
CALUMET HARBOR             42     220/  8/ 13 1007.2R
BURNS HARBOR               42     220/ 12/ 15 1008.5S
MICHIGAN CITY              41     210/ 19/ 21   N/A
$$

ILZ025>027-034>036-040-047-049-050-058-095>099-080200-
WEST-CENTRAL ILLINOIS

CITY           SKY/WX    TMP DP  RH WIND       PRES   REMARKS
QUINCY         PTCLDY    35  29  78 SW6       29.88F WCI  30
GALESBURG*     CLEAR     34  28  78 W9        29.83S WCI  27
MACOMB*        CLOUDY    39  29  67 W16       29.87S WCI  30
JACKSONVILLE*  CLOUDY    41  34  76 W18G24    29.89R
PITTSFIELD*    DRIZZLE   41  33  73 W8        29.91S
$$

ILZ028>032-037-038-041>044-048-051>054-059>061-080200-
CENTRAL ILLINOIS

CITY           SKY/WX    TMP DP  RH WIND       PRES   REMARKS
PONTIAC        PTCLDY    37  32  82 W12       29.82S WCI  29
BLOOMINGTON    CLEAR     40  30  67 W8        29.84R
DECATUR        MOCLDY    43  31  62 SW9       29.85F
PEORIA         CLEAR     39  26  59 W5        29.84R
LACON*         PTCLDY    38  27  64 SW5       29.81F WCI  34
LINCOLN*       PTCLDY    43  30  59 CALM      29.84F
SPRINGFIELD    PTCLDY    41  30  65 W7        29.86S
TAYLORVILLE    MOCLDY    41  32  70 SW7       29.86S
$$

ILZ033-039-045-046-055>057-062-063-080200-
EAST-CENTRAL ILLINOIS

CITY           SKY/WX    TMP DP  RH WIND       PRES   REMARKS
CHAMPAIGN      MOCLDY    38  32  79 SW9       29.83F WCI  31
RANTOUL*       MOCLDY    39  35  85 SW8       29.82F WCI  33
MATTOON        CLEAR     41  32  70 W8        29.85S
PARIS*         PTCLDY    38  34  86 W7        29.85S WCI  33
$$

ILZ079-100>102-080200-
SOUTHWEST ILLINOIS

CITY           SKY/WX    TMP DP  RH WIND       PRES   REMARKS
ALTON          CLOUDY    45  32  61 SW7       29.88F
BELLEVILLE     CLOUDY    49  26  41 W15G30    29.89S
CAHOKIA*       CLOUDY    50  26  39 W7        29.89F
SPARTA*        MOCLDY    47  30  50 W5        29.91S
$$

ILZ064>066-069>071-074>076-080>082-084>086-088>090-092>094-080200-
SOUTH-CENTRAL ILLINOIS

CITY           SKY/WX    TMP DP  RH WIND       PRES   REMARKS
CARBONDALE     PTCLDY    49  27  42 W5        29.90S
CAIRO*         MOCLDY    48  37  65 SW8       29.92S
EFFINGHAM*     CLEAR     42  33  71 W9        29.89S
MARION         PTCLDY    48  30  49 CALM      29.90F
MT. VERNON     MOCLDY    46  27  46 W3        29.89F
CENTRALIA*     CLOUDY    47  33  59 NW9       29.89S
SALEM*         MOCLDY    48  31  52 W10G17    29.89S
METROPOLIS*    PTCLDY    51  35  53 SW9       29.91F
$$

ILZ067-068-072-073-078-083-087-091-080200-
SOUTHEAST ILLINOIS

CITY           SKY/WX    TMP DP  RH WIND       PRES   REMARKS
LAWRENCEVILLE  CLOUDY    48  31  51 W13       29.86S
FLORA*         CLEAR     48  32  53 NW8       29.89R
FAIRFIELD*     CLEAR     47  31  53 W3        29.87S
HARRISBURG*    CLEAR     46  31  55 SW6       29.89S
ROBINSON*      CLOUDY    44  32  61 W10G17    29.87R
CARMI*         CLEAR     45  32  61 SW7       29.87S
$$

ABBREVIATIONS USED IN REMARKS
   TC - TEMPERATURE IN CELSIUS
  WCI - WIND CHILL INDEX
   HX - HEAT INDEX
  VSB - VISIBILITY
$$




USA.gov is the U.S. government's official web portal to all federal, state and local government web resources and services.